Location: Leuk
(46.3174°N, 7.6341°E)
Time: 07:34:49
(UTC+00:00)

Cosmos 2333 Rocket - Pass Details

Date: 09 March 2021
Orbit: 837 x 864 km, 70.8° (Epoch: 18 April)

Event Time Altitude Azimuth Distance (km) Brightness Sun altitude
Rises 04:21:22 0° 328° (NNW) 3,450 5.2 -16.7°
Reaches altitude 10° 04:23:56 10° 322° (NW) 2,511 4.4 -16.3°
Maximum altitude 04:29:21 43° 252° (WSW) 1,193 2.5 -15.4°
Drops below altitude 10° 04:34:45 10° 183° (S) 2,497 4.5 -14.4°
Sets 04:37:18 0° 176° (S) 3,428 5.3 -14.0°
